Voltar ao catálogo

STARLINK-32021

AtivoComunicaçõesVLEO
NORAD 60148·PAYLOAD·🇺🇸 United States

Lançado Jun 27, 2024 de Cape Canaveral Space Force Station

Loading…

Próximas Passagens (próximas 24 horas)

TLE

AtualizadoSource: CelesTrak SupGP

Época: Sep 14, 2026, 20:39 UTC

1 60148C 24120P   26257.86090278 -.00029912  00000+0 -96167-3 0  2573
2 60148  53.1583 149.8601 0001436  97.2965 108.7679 15.31723981    16

Acompanhe STARLINK-32021 em tempo real com AllMySat

Download on the App Store